| time (UTC) | temp F | wind direction | speed MPH | gust MPH | rain 1hr in | rain 24hr in | rain mn in | humidity % | barometer mb |
| 20260831050033 | 68 | 321 | 2.0 | 4.0 | 0.00 | 0.00 | 0.00 | 41 | 1014.3 |
| 20260831044513 | 68 | 324 | 0.0 | 0.0 | 0.00 | 0.00 | 0.00 | 41 | 1014.3 |
| 20260831043001 | 70 | 323 | 1.0 | 4.0 | 0.00 | 0.00 | 0.00 | 40 | 1014.2 |
| 20260831041503 | 70 | 335 | 2.0 | 3.0 | 0.00 | 0.00 | 0.00 | 40 | 1014.2 |
| 20260831040100 | 69 | 335 | 3.0 | 5.0 | 0.00 | 0.00 | 0.00 | 40 | 1014.2 |
| 20260831034600 | 70 | 342 | 4.0 | 5.0 | 0.00 | 0.00 | 0.00 | 40 | 1014.2 |
| 20260831033059 | 70 | 354 | 3.0 | 3.0 | 0.00 | 0.00 | 0.00 | 40 | 1014.1 |
| 20260831031558 | 70 | 346 | 2.0 | 4.0 | 0.00 | 0.00 | 0.00 | 40 | 1014.0 |
| 20260831024558 | 71 | 45 | 2.0 | 3.0 | 0.00 | 0.00 | 0.00 | 36 | 1013.8 |
| 20260831023039 | 72 | 58 | 4.0 | 6.0 | 0.00 | 0.00 | 0.00 | 35 | 1013.7 |
| 20260831021539 | 73 | 60 | 4.0 | 5.0 | 0.00 | 0.00 | 0.00 | 34 | 1013.6 |
| 20260831020022 | 74 | 90 | 5.0 | 9.0 | 0.00 | 0.00 | 0.00 | 33 | 1013.5 |
| 20260831014522 | 75 | 93 | 9.0 | 11.0 | 0.00 | 0.00 | 0.00 | 31 | 1013.5 |
| 20260831013008 | 78 | 113 | 4.0 | 8.0 | 0.00 | 0.00 | 0.00 | 25 | 1013.5 |
| 20260831011506 | 78 | 198 | 3.0 | 8.0 | 0.00 | 0.00 | 0.00 | 24 | 1013.4 |
| 20260831010007 | 78 | 225 | 5.0 | 11.0 | 0.00 | 0.00 | 0.00 | 22 | 1013.4 |
| 20260831004509 | 79 | 195 | 8.0 | 13.0 | 0.00 | 0.00 | 0.00 | 23 | 1013.5 |
| 20260831003007 | 79 | 207 | 9.0 | 14.0 | 0.00 | 0.00 | 0.00 | 22 | 1013.5 |
| 20260831001508 | 79 | 248 | 11.0 | 18.0 | 0.00 | 0.00 | 0.00 | 21 | 1013.6 |
| 20260831000005 | 79 | 174 | 5.0 | 11.0 | 0.00 | 0.00 | 0.00 | 21 | 1013.6 |
| 20260830234608 | 79 | 217 | 12.0 | 17.0 | 0.00 | 0.00 | 0.00 | 21 | 1013.8 |
| 20260830233104 | 79 | 219 | 11.0 | 17.0 | 0.00 | 0.00 | 0.00 | 24 | 1014.0 |
| 20260830231556 | 78 | 212 | 12.0 | 19.0 | 0.00 | 0.00 | 0.00 | 25 | 1014.1 |
| 20260830230041 | 78 | 191 | 6.0 | 13.0 | 0.00 | 0.00 | 0.00 | 26 | 1014.3 |
| 20260830224538 | 77 | 272 | 7.0 | 12.0 | 0.00 | 0.00 | 0.00 | 26 | 1014.5 |
| 20260830223035 | 76 | 204 | 7.0 | 15.0 | 0.00 | 0.00 | 0.00 | 30 | 1014.7 |
| 20260830221533 | 77 | 188 | 7.0 | 15.0 | 0.00 | 0.00 | 0.00 | 30 | 1014.9 |
| 20260830220053 | 75 | 191 | 5.0 | 19.0 | 0.00 | 0.00 | 0.00 | 31 | 1015.2 |
| 20260830214528 | 75 | 173 | 5.0 | 14.0 | 0.00 | 0.00 | 0.00 | 34 | 1015.4 |
| 20260830213026 | 74 | 139 | 4.0 | 13.0 | 0.00 | 0.00 | 0.00 | 34 | 1015.6 |
| 20260830211527 | 74 | 228 | 13.0 | 18.0 | 0.00 | 0.00 | 0.00 | 35 | 1015.9 |
| 20260830210003 | 74 | 182 | 11.0 | 16.0 | 0.00 | 0.00 | 0.00 | 35 | 1015.9 |
| 20260830204616 | 73 | 222 | 4.0 | 16.0 | 0.00 | 0.00 | 0.00 | 36 | 1016.0 |
| 20260830203042 | 72 | 186 | 8.0 | 17.0 | 0.00 | 0.00 | 0.00 | 37 | 1016.2 |
| 20260830201548 | 72 | 204 | 10.0 | 18.0 | 0.00 | 0.00 | 0.00 | 37 | 1016.3 |
| 20260830200032 | 71 | 195 | 8.0 | 18.0 | 0.00 | 0.00 | 0.00 | 39 | 1016.4 |
| 20260830194517 | 71 | 257 | 9.0 | 15.0 | 0.00 | 0.00 | 0.00 | 39 | 1016.5 |
| 20260830193056 | 70 | 297 | 6.0 | 14.0 | 0.00 | 0.00 | 0.00 | 40 | 1016.8 |
| 20260830191619 | 70 | 243 | 10.0 | 17.0 | 0.00 | 0.00 | 0.00 | 42 | 1016.9 |
| 20260830190053 | 69 | 195 | 10.0 | 17.0 | 0.00 | 0.00 | 0.00 | 42 | 1017.1 |
| 20260830184538 | 68 | 253 | 8.0 | 18.0 | 0.00 | 0.00 | 0.00 | 44 | 1017.1 |
| 20260830183035 | 68 | 259 | 9.0 | 17.0 | 0.00 | 0.00 | 0.00 | 46 | 1017.3 |
| 20260830181533 | 67 | 203 | 12.0 | 20.0 | 0.00 | 0.00 | 0.00 | 46 | 1017.3 |
| 20260830180037 | 67 | 276 | 11.0 | 19.0 | 0.00 | 0.00 | 0.00 | 47 | 1017.3 |
| 20260830174534 | 67 | 243 | 13.0 | 17.0 | 0.00 | 0.00 | 0.00 | 46 | 1017.4 |
| 20260830173029 | 67 | 235 | 14.0 | 18.0 | 0.00 | 0.00 | 0.00 | 47 | 1017.4 |
| 20260830171627 | 66 | 190 | 13.0 | 21.0 | 0.00 | 0.00 | 0.00 | 50 | 1017.3 |
| 20260830170003 | 65 | 245 | 11.0 | 16.0 | 0.00 | 0.00 | 0.00 | 51 | 1017.5 |
| 20260830164600 | 64 | 224 | 12.0 | 17.0 | 0.00 | 0.00 | 0.00 | 52 | 1017.6 |
| 20260830163042 | 63 | 222 | 14.0 | 18.0 | 0.00 | 0.00 | 0.00 | 55 | 1017.7 |
| 20260830161542 | 63 | 255 | 13.0 | 18.0 | 0.00 | 0.00 | 0.00 | 56 | 1017.9 |
| 20260830160027 | 62 | 218 | 13.0 | 18.0 | 0.00 | 0.00 | 0.00 | 58 | 1017.8 |
| 20260830154516 | 61 | 232 | 14.0 | 19.0 | 0.00 | 0.00 | 0.00 | 59 | 1017.7 |
| 20260830153055 | 61 | 225 | 13.0 | 18.0 | 0.00 | 0.00 | 0.00 | 60 | 1017.7 |
| 20260830151551 | 60 | 217 | 15.0 | 20.0 | 0.00 | 0.00 | 0.00 | 61 | 1017.5 |
| 20260830150039 | 59 | 240 | 15.0 | 20.0 | 0.00 | 0.00 | 0.00 | 61 | 1017.5 |
| 20260830144530 | 59 | 273 | 13.0 | 19.0 | 0.00 | 0.00 | 0.00 | 60 | 1017.4 |
| 20260830143012 | 59 | 252 | 10.0 | 15.0 | 0.00 | 0.00 | 0.00 | 58 | 1017.4 |
| 20260830141514 | 59 | 245 | 7.0 | 11.0 | 0.00 | 0.00 | 0.00 | 56 | 1017.5 |
| 20260830140056 | 58 | 266 | 10.0 | 13.0 | 0.00 | 0.00 | 0.00 | 58 | 1017.2 |
| 20260830134547 | 57 | 256 | 9.0 | 14.0 | 0.00 | 0.00 | 0.00 | 59 | 1017.3 |
| 20260830133024 | 55 | 272 | 7.0 | 18.0 | 0.00 | 0.00 | 0.00 | 63 | 1017.3 |
| 20260830131541 | 54 | 225 | 7.0 | 11.0 | 0.00 | 0.00 | 0.00 | 64 | 1017.2 |
| 20260830130003 | 55 | 259 | 10.0 | 19.0 | 0.00 | 0.00 | 0.00 | 62 | 1017.2 |
| 20260830124600 | 56 | 271 | 8.0 | 14.0 | 0.00 | 0.00 | 0.00 | 60 | 1017.0 |
| 20260830123041 | 58 | 255 | 11.0 | 15.0 | 0.00 | 0.00 | 0.00 | 57 | 1016.9 |
| 20260830121541 | 57 | 262 | 9.0 | 12.0 | 0.00 | 0.00 | 0.00 | 58 | 1016.9 |
| 20260830120024 | 58 | 271 | 8.0 | 13.0 | 0.00 | 0.00 | 0.00 | 57 | 1016.8 |
| 20260830114527 | 58 | 276 | 7.0 | 12.0 | 0.00 | 0.00 | 0.00 | 56 | 1016.8 |
| 20260830113016 | 58 | 259 | 5.0 | 11.0 | 0.00 | 0.00 | 0.00 | 56 | 1016.8 |
| 20260830111509 | 58 | 267 | 6.0 | 13.0 | 0.00 | 0.00 | 0.00 | 56 | 1016.6 |
| 20260830110012 | 58 | 277 | 5.0 | 11.0 | 0.00 | 0.00 | 0.00 | 56 | 1016.5 |
| 20260830104508 | 58 | 269 | 6.0 | 10.0 | 0.00 | 0.00 | 0.00 | 56 | 1016.7 |
| 20260830103008 | 57 | 276 | 7.0 | 10.0 | 0.00 | 0.00 | 0.00 | 57 | 1016.7 |
| 20260830101506 | 57 | 281 | 9.0 | 13.0 | 0.00 | 0.00 | 0.00 | 57 | 1016.5 |
| 20260830100005 | 57 | 247 | 7.0 | 14.0 | 0.00 | 0.00 | 0.00 | 57 | 1016.5 |
| 20260830094504 | 56 | 244 | 9.0 | 12.0 | 0.00 | 0.00 | 0.00 | 59 | 1016.5 |
| 20260830093102 | 56 | 264 | 8.0 | 11.0 | 0.00 | 0.00 | 0.00 | 60 | 1016.4 |
| 20260830091542 | 56 | 281 | 7.0 | 10.0 | 0.00 | 0.00 | 0.00 | 58 | 1016.3 |
| 20260830090039 | 56 | 271 | 3.0 | 6.0 | 0.00 | 0.00 | 0.00 | 55 | 1016.2 |
| 20260830084520 | 58 | 188 | 0.0 | 5.0 | 0.00 | 0.00 | 0.00 | 50 | 1016.1 |
| 20260830083021 | 59 | 9 | 0.0 | 6.0 | 0.00 | 0.00 | 0.00 | 49 | 1015.9 |
| 20260830081524 | 60 | 316 | 3.0 | 5.0 | 0.00 | 0.00 | 0.00 | 48 | 1016.0 |
| 20260830080009 | 61 | 314 | 1.0 | 7.0 | 0.00 | 0.00 | 0.00 | 47 | 1016.0 |
| 20260830074513 | 61 | 302 | 4.0 | 6.0 | 0.00 | 0.00 | 0.00 | 47 | 1015.8 |
| 20260830073005 | 61 | 278 | 3.0 | 5.0 | 0.00 | 0.00 | 0.00 | 46 | 1015.8 |
| 20260830071505 | 61 | 273 | 2.0 | 8.0 | 0.00 | 0.00 | 0.00 | 46 | 1015.7 |
| 20260830070005 | 62 | 269 | 3.0 | 7.0 | 0.00 | 0.00 | 0.00 | 45 | 1015.9 |
| 20260830064508 | 62 | 267 | 2.0 | 6.0 | 0.00 | 0.00 | 0.00 | 45 | 1015.7 |
| 20260830063002 | 63 | 278 | 4.0 | 6.0 | 0.00 | 0.00 | 0.00 | 43 | 1015.6 |
| 20260830061547 | 64 | 318 | 3.0 | 9.0 | 0.00 | 0.00 | 0.00 | 41 | 1015.5 |
| 20260830060051 | 65 | 6 | 8.0 | 10.0 | 0.00 | 0.00 | 0.00 | 41 | 1015.5 |
| 20260830054526 | 65 | 359 | 7.0 | 11.0 | 0.00 | 0.00 | 0.00 | 40 | 1015.7 |
| 20260830053026 | 65 | 333 | 8.0 | 18.0 | 0.00 | 0.00 | 0.00 | 39 | 1015.6 |
| 20260830051509 | 66 | 359 | 10.0 | 18.0 | 0.00 | 0.00 | 0.00 | 39 | 1015.7 |